www.pogodaiklimat.ru

Погода и климат >> Архив погоды >> Монголия >> Улиастай


ПОГОДА в Улиастае

  • Прогноз погоды в Улиастае
  • Монитор погоды в Улиастае

АРХИВ ПОГОДЫ в Улиастае

Время (UTC), дата Ветер
(напр.,м/с)
 
Видим.   Явления Облачность Т
(С)
Тd
(С)
f
(%)
Тe
(С)
Тes
(С)
Комфортность P
(гПа)
Po
(гПа)
Тmin
(С)
Tmax
(С)
R
(мм)
R24
(мм)
S
(см)
21 18.08 В 2 н/о в посл. час ливневой дождь 10/10 600 м
[Cb cap]
+11.2 +7.7 79 +10 +10 1012.0 818.7
00 19.08 З 5 10 км ливневой дождь 10/10 600 м
[Cb cap]
+10.5 +7.8 83 +8 +8 1014.1 820.1 +10.5 1
03 19.08 С 4
{12}
2000 м сильн. ливневой дождь 10/10 600 м
[Cb cap]
+7.1 +5.7 91 +3 +3 1018.9 821.7
06 19.08 В 3 50 км в посл. час ливневой дождь 8/8 600 м
[Cb cap Ci fib]
+13.2 +6.8 65 +12 +14 1014.5 821.9
09 19.08 ЮЗ 1
{11}
50 км в посл. час ливневой дождь 9/9 600 м
[Cb cap]
+12.9 +6.0 63 +13 +14 1015.4 822.4
12 19.08 СЗ 2
{11}
50 км {ливн. осадки} 8/8 600 м
[Cb cap]
+13.3 +3.4 51 +13 +13 1015.5 822.9 +14.5 9
15 19.08 З 2
{11}
н/о 6/4 1000 м
[Sc Ac cuf]
+9.0 +4.6 74 +7 +7 1020.8 824.4
18 19.08 В 1 50 км ясно +6.3 +3.3 81 +5 +5 1024.7 825.9
21 19.08 ЮВ 2 50 км ясно +5.1 +1.9 80 +3 +3 1025.6 825.9
00 20.08 штиль 0 10 км мгла ясно +5.7 +2.3 79 +5 +6 1026.4 826.9 +3.5
03 20.08 СЗ 1 10 км мгла ясно +11.8 +1.4 49 +12 +24 опасность
простуды
1021.7 826.7
06 20.08 СЗ 2 50 км ясно +15.1 +2.0 41 +15 +29 опасность
простуды
1017.3 825.3
09 20.08 З 1 50 км 5/0
[Cs]
+18.5 +0.6 30 +20 +27 1012.6 823.5
12 20.08 ЮЗ 1 10 км мгла 9/6 1000 м
[Frnb Cc]
+16.7 +1.9 37 +18 +18 1013.3 823.0 +19.1
15 20.08 В 2 н/о 6/0
[Ac As]
+12.0 +5.0 62 +11 +11 1017.1 823.3
18 20.08 штиль 0 н/о 6/0
[Ac trans]
+9.4 +4.6 72 +9 +9 1019.4 823.6
21 20.08 В 2 н/о слаб. дождь 9/9 1000 м
[Sc]
+9.5 +4.5 71 +8 +8 1019.2 823.5
00 21.08 штиль 0 10 км мгла {дождь} 10/0
[Ac und]
+9.2 +3.8 69 +9 +9 1019.0 823.1 +6.9 0.0
03 21.08 С 1 50 км 1/0
[Ac lent]
+16.2 +3.8 44 +17 +28 1012.9 822.4
06 21.08 СВ 3 50 км 5/5 1000 м
[Cu med, cong]
+22.0 +1.5 26 +22 +28 комфорт 1007.2 821.1
09 21.08 В 2 50 км 6/6 1000 м
[Cb calv]
+22.6 -0.2 22 +22 +24 комфорт 1005.6 820.2
12 21.08 ЮЗ 4 50 км 8/5 1000 м
[Frnb Cs]
+21.0 -0.9 23 +21 +21 комфорт 1006.3 819.9 +23.6
15 21.08 В 2 50 км ясно +14.3 +2.2 44 +14 +14 1012.4 820.9
18 21.08 СВ 3 50 км 1/0
[Ac lent]
+11.6 +1.8 51 +10 +10 1014.9 821.3
21 21.08 В 3 50 км ясно +9.3 +2.2 61 +7 +7 1017.1 821.6
00 22.08 В 3 10 км мгла 1/0
[Ci sp]
+9.7 +3.2 64 +8 +9 1017.5 822.2 +7.2
03 22.08 СВ 2 50 км ясно +17.2 +2.8 38 +18 +27 1010.8 821.3
06 22.08 СЗ 2 50 км 9/4 1000 м
[Cu med, cong Cs]
+22.7 +0.5 23 +22 +29 комфорт 1005.0 819.8
09 22.08 З 5 50 км 9/3 1000 м
[Cu med, cong Cs]
+23.4 +0.5 22 +22 +24 комфорт 1003.1 818.6
12 22.08 ЮЗ 2 50 км 9/4 1000 м
[Cu med, cong Ac lent Ci]
+21.1 +0.3 25 +21 +21 комфорт 1004.5 818.4 +24.7
15 22.08 С 2 н/о 6/0
[Ac As]
+16.5 +3.4 42 +17 +17 1009.8 820.1
18 22.08 ЮВ 8 н/о 10/10
[Sc]
+15.8 +4.4 47 +14 +14 1010.2 820.0
21 22.08 Ю 2 н/о 9/9 1000 м
[Sc]
+14.8 +6.4 57 +15 +15 1010.3 819.5
00 23.08 ЮЗ 2 10 км мгла 4/0
[Ac trans]
+11.7 +6.8 72 +11 +12 1013.0 819.8 +11.6
03 23.08 В 3 50 км 3/3 1000 м
[Cu med, cong]
+19.3 +7.0 45 +20 +26 1007.2 819.6
06 23.08 СЗ 4 50 км 5/5 1000 м
[Cu med, cong]
+22.8 +1.2 24 +22 +27 комфорт 1003.1 818.3
09 23.08 ЮЗ 6 50 км 5/5 1000 м
[Cu med, cong]
+24.5 -2.1 17 +23 +24 комфорт 1000.9 817.5
12 23.08 ЮЗ 6 50 км 4/4 1000 м
[Cu med, cong]
+22.5 -2.5 19 +21 +21 комфорт 1002.1 817.3 +24.8
15 23.08 В 2 н/о 8/0
[Ac cuf Cs]
+17.8 +0.9 32 +18 +18 1007.0 818.5
18 23.08 Ю 6
{15}
н/о 6/0
[Ac As]
+16.5 +3.6 42 +15 +15 1008.3 818.9
21 23.08 Ю 4 н/о 6/3 1000 м
[Frnb Ac und]
+13.9 +4.5 53 +13 +13 1010.4 819.0
00 24.08 СВ 2 10 км мгла 1/1 1000 м
[Cu hum]
+10.9 +4.6 65 +10 +11 1015.2 821.1 +8.3
03 24.08 СЗ 2 50 км 3/0
[Cs]
+17.3 -0.9 29 +18 +27 1011.1 821.7
06 24.08 ЮЗ 5
{14}
50 км 1/0
[Cs]
+19.6 -6.9 16 +19 +26 1009.0 821.2
09 24.08 ЮЗ 6 50 км 8/0
[Cs]
+19.9 -6.7 16 +19 +21 1008.0 820.6
12 24.08 СЗ 2 50 км 8/0
[Ac lent Cs]
+17.2 -4.1 23 +18 +18 1010.3 820.9 +20.6
15 24.08 Ю 4 50 км ясно +10.3 -4.1 36 +8 +8 1017.7 822.8
18 24.08 В 2 50 км ясно +7.7 -5.1 40 +6 +6 1021.4 824.1
21 24.08 В 2 50 км ясно +5.1 -3.7 53 +3 +3 1024.3 824.8
00 25.08 СВ 1 10 км мгла ясно +5.1 -2.7 57 +4 +5 1025.7 825.9 +2.7
03 25.08 Ю 2 50 км 1/1 1000 м
[Cu hum]
+12.9 -2.2 35 +13 +21 1019.6 825.9
06 25.08 С 5 50 км 5/5 1000 м
[Cu med, cong]
+17.4 -4.4 22 +17 +20 1014.6 824.5
09 25.08 С 2 50 км 6/6 1000 м
[Cu med, cong]
+17.9 -4.5 21 +18 +21 1013.1 823.6
12 25.08 СЗ 5 50 км 3/0
[Ac trans]
+16.9 -3.2 25 +16 +16 1014.6 824.2 +19.6
15 25.08 ЮВ 2 50 км ясно +11.1 -1.3 42 +10 +10 1021.1 826.1
18 25.08 СВ 5 50 км ясно +7.9 -0.8 54 +5 +5 1024.5 826.8

 

Местоположение метеостанции Улиастай (Монголия): широта 47.75 долгота 96.85 высота над уровнем моря 1759 м.

В архиве по умолчанию представлена погода в Улиастае за последнюю неделю. Архивные данные за месяц целиком и за предыдущие месяцы, начиная с января 2011 года, Вы можете получить, выбрав интересующий диапазон дат из раскрывающегося списка и нажав кнопку "Ввод!".


*Определитесь, кто Вы:
робот инопланетянин человек

Внимание! Время в таблицах - всемирное. Для получения местного времени необходимо прибавить поправку, которая равна 8 ч.

Смотрите также архив погоды в соседних городах и на ближайших метеорологических станциях:

Погода в Цэцэн-Ууле (Монголия) (130 км)
Погода в Баянбулаге (Монголия) (138 км)
Погода в Тосонцэнгэле (Монголия) (148 км)
Погода в Алтае (Монголия) (157 км)
Погода в Тариате (Монголия) (205 км)
Погода в Ургамале (Монголия) (208 км)
Погода в Тэсе (Монголия) (225 км)
Погода в Галууте (Монголия) (274 км)
Погода в Тонхиле (Монголия) (274 км)
Погода в Баруунтурууне (Монголия) (277 км)

Пояснения к столбцам:

Ветер - указаны скорость ветра в м/с - средняя за 10 мин, порывы в срок и между сроками (в фигурных скобках) и направление, откуда дует ветер: С - северный, СВ - северо-восточный, В - восточный, ЮВ - юго-восточный, Ю - южный, ЮЗ - юго-западный, З - западный, СЗ - северо-западный.
Видимость - горизонтальная дальность видимости в метрах или километрах. При видимости от 1 до 10 км при отсутствии осадков обычно наблюдается дымка, при ухудшении видимости до 1 км и менее - туман. В сухую погоду видимость может ухудшаться дымом, пылью или мглою.
Явления - указаны атмосферные явления, наблюдавшиеся в срок или в последний час перед сроком; фигурными скобками обозначены явления, наблюдавшиеся между сроками (за 1-3 часа до срока); квадратными скобками обозначены град или гололедные отложения с указанием их диаметра в мм.
Облачность - указаны через наклонную черту общая и нижняя облачность в баллах и высота нижней границы облаков в метрах; квадратными скобками обозначены формы облаков: Ci - перистые, Cs - перисто-слоистые, Cc - перисто-кучевые, Ac - высококучевые, As - высокослоистые, Sc - слоисто-кучевые, Ns - слоисто-дождевые, Cu - кучевые, Cb - кучево-дождевые. Подробнее классификацию облаков см. в Атласе облаков (PDF).
T - Температура воздуха - температура, измеренная на высоте 2 м над землей.
Td - Температура точки росы - температура, при понижении до которой содержащийся в воздухе водяной пар достигнет насыщения.
f - Относительная влажность воздуха - влажноcть воздуха, измеренная на высоте 2 м над землей.
Te - Эффективная температура - температура, которую ощущает одетый по сезону человек в тени. Характеристика душности погоды. При расчете учитывается влияние влажности воздуха и скорости ветра на теплоощущения человека.
Tes - Эффективная температура на солнце - температура, которую ощущает человек, с поправкой на солнечный нагрев. Характеристика знойности погоды. Зависит от высоты солнца над горизонтом, облачности и скорости ветра. Ночью, в пасмурную погоду, а также при ветре 12 м/с и более поправка равна нулю.
P - Атмосферное давление - приведенное к уровню моря атмосферное давление.
Po - Атмосферное давление - измеренное на уровне метеостанции атмосферное давление.
Tmin - Минимальная температура - минимум температуры воздуха на высоте 2 м над землей.
Tmax - Максимальная температура - максимум температуры воздуха на высоте 2 м над землей.
R - Количество осадков - Количество выпавших осадков за период времени, мм. При наведении курсора мыши на число - период времени, за который выпало указанное количество осадков.
R24 - Количество осадков - Количество выпавших осадков за 24 часа, мм.
S - Снежный покров - Высота снежного покрова, см. При наведении курсора мыши на число - состояние снежного покрова и степень покрытия местности в баллах.